CAPE
0 0 0 0 0 0 26 5 0 4 6 0 4 3 0 114 198 136 142 81 100 52 49 66 25 14 64 30 17 4 16 0 0 0 0 0 0 0 0 0 0 0 0 0
0 0 0 0 5 19 17 0 0 0 0 7 1 17 8 32 135 72 46 100 93 98 60 73 90 89 76 72 84 150 105 1 0 0 0 0 0 0 0 0 0 0 0 0
0 0 0 0 1 0 0 0 1 0 8 3 11 8 53 49 140 122 187 72 59 91 160 205 202 172 104 114 89 130 150 3 0 0 0 0 0 0 0 0 0 0 0 0
0 0 0 0 0 0 0 0 0 0 15 17 20 10 93 62 212 223 343 52 41 70 110 120 150 170 119 72 165 116 125 0 0 0 0 0 0 0 0 0 0 0 0 0
0 0 0 0 0 0 0 0 0 0 1 12 7 80 118 303 227 275 230 93 79 57 112 105 97 190 133 92 122 137 3 0 0 0 0 0 0 0 0 0 0 0 0 0
0 0 0 0 0 0 0 0 0 0 0 0 0 12 258 291 325 367 269 232 146 140 112 101 65 90 259 122 203 89 0 0 0 0 0 0 0 0 0 0 0 0 0 0
0 0 0 0 0 0 0 0 0 0 0 0 0 24 85 291 169 297 135 74 64 138 86 99 101 192 209 130 160 0 0 0 0 0 0 0 0 0 0 0 0 0 0 0
0 0 0 0 0 0 0 0 0 0 0 0 6 12 41 74 132 143 140 82 42 26 11 130 112 199 171 150 21 0 0 0 0 0 0 0 0 0 0 0 0 0 0 0
0 0 0 0 0 0 0 0 0 0 0 0 11 200 190 89 106 78 48 43 95 21 26 6 77 115 152 145 0 0 0 0 0 0 0 0 0 0 0 0 0 0 0 0
0 0 0 0 0 0 0 0 0 0 0 0 0 179 85 92 50 175 184 115 209 30 31 9 79 127 90 17 0 0 0 0 0 0 0 0 0 0 0 0 0 0 0 0
0 0 0 0 0 0 0 0 0 0 0 0 0 15 109 157 55 177 240 300 257 177 150 109 111 9 0 0 0 0 0 0 0 0 0 0 0 0 0 0 0 0 0 0
0 0 0 0 0 0 0 0 0 0 0 0 0 0 119 177 200 171 178 185 256 226 197 235 0 0 0 5 0 0 0 0 0 0 0 0 0 0 0 0 0 0 0 0
0 0 0 0 0 0 0 0 0 0 0 0 0 0 73 101 449 266 209 269 294 221 146 121 0 0 1 30 1 0 0 0 0 0 0 0 0 0 0 0 0 0 0 0
0 0 0 0 0 0 0 0 0 0 0 0 0 16 177 213 522 390 299 329 309 185 192 30 0 0 1 31 0 0 0 0 0 0 0 0 0 0 0 0 0 0 0 0
0 0 0 0 0 0 0 0 0 0 0 0 0 22 49 551 627 489 388 353 234 257 116 8 0 0 0 1 0 0 0 0 0 0 0 0 0 0 0 0 0 2 12 0
0 0 0 0 1 3 0 0 0 0 0 0 0 12 11 436 753 634 471 298 180 86 50 3 0 0 0 0 0 0 0 0 0 0 0 0 0 1 0 0 14 15 15 17
11 0 0 0 0 27 8 0 0 9 0 13 7 57 32 453 677 476 336 172 109 57 39 26 12 0 0 0 0 0 0 0 0 0 0 0 0 1 0 0 7 18 24 20
75 0 0 0 1 8 8 5 0 3 0 0 8 169 218 237 324 282 208 111 79 49 79 27 0 0 0 0 0 0 0 0 0 0 0 0 1 2 5 9 19 21 35 24
23 0 0 0 0 7 44 10 14 8 0 0 3 113 295 262 236 273 197 122 100 97 55 15 0 0 0 1 0 0 0 0 0 0 0 0 8 2 6 16 37 31 19 14
16 0 0 10 0 0 2 42 50 38 31 15 5 1 40 233 341 334 361 368 274 190 83 23 0 0 0 0 0 0 0 0 0 0 0 3 4 3 4 31 20 29 28 17
48 35 3 18 72 30 12 27 28 30 3 82 22 12 88 231 74 164 440 434 285 135 37 4 0 0 0 0 0 0 0 0 0 4 5 2 3 3 5 16 20 16 22 28
20 123 40 45 90 24 27 10 19 3 185 8 0 3 1 12 3 31 331 297 149 44 0 0 0 0 0 0 0 0 0 0 3 1 3 1 6 6 5 4 18 24 20 17
109 137 334 177 97 87 16 57 248 193 93 54 27 1 0 1 8 34 131 119 30 7 7 3 0 0 0 0 0 0 0 0 1 0 2 4 3 0 5 17 24 8 1 0
46 70 62 50 66 253 291 187 130 88 89 69 54 52 21 7 16 32 34 24 15 6 0 0 0 0 0 0 0 0 0 0 0 0 0 0 0 0 1 8 20 0 0 0
27 6 9 27 107 122 114 170 120 85 62 49 35 31 36 25 7 4 5 4 0 0 0 0 0 0 0 0 0 0 0 0 0 0 0 0 0 0 0 0 0 0 5 38
3 0 0 10 60 78 130 166 52 64 45 49 40 7 6 0 0 0 0 0 0 0 0 0 0 0 0 0 0 0 0 0 0 0 0 0 0 0 0 0 0 28 43 22
CIN
0 0 0 0 0 0 -34 -42 0 -28 -129 -41 -212 -154 0 -141 -60 -66 -47 -43 -26 -12 -110 -76 -59 -42 -29 -13 -10 -12 -8 0 0 0 0 0 0 0 0 0 0 0 0 0
0 0 0 0 -13 -33 -46 0 0 0 0 -24 -29 -70 -7 -51 -122 -86 -65 -112 -92 -65 -62 -66 -26 -14 -12 -3 -6 -1 -2 -5 0 0 0 0 0 0 0 0 0 0 0 0
0 0 0 0 -5 0 0 0 -88 0 -116 -107 -243 -20 -55 -86 -332 -133 -72 -85 -123 -71 -66 -58 -30 -13 -7 -16 -13 0 0 -3 0 0 0 0 0 0 0 0 0 0 0 0
0 0 0 0 0 0 0 0 0 0 -165 -83 -192 -65 -41 -48 -241 -164 -61 -95 -121 -65 -60 -70 -30 -11 -10 -29 -12 -3 -3 0 0 0 0 0 0 0 0 0 0 0 0 0
0 0 0 0 0 0 0 0 0 0 -6 -79 -94 -85 -68 -98 -238 -123 -23 -28 -11 -28 -84 -60 -34 -16 -13 -27 -13 -4 -18 0 0 0 0 0 0 0 0 0 0 0 0 0
0 0 0 0 0 0 0 0 0 0 0 0 0 -42 -144 -144 -144 -70 -68 -53 -16 -28 -69 -72 -52 -32 -19 -33 -10 -4 0 0 0 0 0 0 0 0 0 0 0 0 0 0
0 0 0 0 0 0 0 0 0 0 0 0 0 -88 -89 -93 -30 -193 -208 -139 -55 -36 -101 -74 -38 -37 -36 -29 -9 0 0 0 0 0 0 0 0 0 0 0 0 0 0 0
0 0 0 0 0 0 0 0 0 0 0 0 -58 -59 -138 -140 -441 -411 -258 -469 -189 -143 -235 -78 -31 -3 -24 -10 -7 0 0 0 0 0 0 0 0 0 0 0 0 0 0 0
0 0 0 0 0 0 0 0 0 0 0 0 -74 -178 -339 -120 -140 -484 -441 -328 -84 -294 -55 -99 0 -7 -9 -9 0 0 0 0 0 0 0 0 0 0 0 0 0 0 0 0
0 0 0 0 0 0 0 0 0 0 0 0 0 -205 -94 -220 -84 -470 -520 -349 -96 -79 -89 -25 -1 -4 -6 -9 0 0 0 0 0 0 0 0 0 0 0 0 0 0 0 0
0 0 0 0 0 0 0 0 0 0 0 0 0 -63 -78 -74 -335 -423 -362 -199 -108 -83 -90 -9 -6 -7 -1 0 0 0 0 0 0 0 0 0 0 0 0 0 0 0 0 0
0 0 0 0 0 0 0 0 0 0 0 0 0 0 -70 -96 -90 -369 -375 -267 -149 -114 -50 -1 -1 0 0 -1 0 0 0 0 0 0 0 0 0 0 0 0 0 0 0 0
0 0 0 0 0 0 0 0 0 0 0 0 0 0 -94 -99 -79 -73 -90 -127 -129 -121 -62 -17 0 0 -1 0 -5 0 0 0 0 0 0 0 0 0 -4 0 0 0 0 0
0 0 0 0 0 0 0 0 0 0 0 0 0 -79 -153 -97 -68 -75 -90 -117 -133 -139 -56 -98 0 0 -1 -2 0 0 0 0 0 0 0 0 0 0 0 0 0 0 0 0
0 0 0 0 0 0 0 0 0 -6 0 0 0 -117 -165 -93 -97 -92 -91 -62 -96 -39 -65 -110 0 0 0 -1 0 0 0 0 0 0 0 0 0 0 0 0 0 -3 -2 0
0 0 0 0 -1 -3 0 0 0 0 0 0 0 -145 -51 -150 -106 -119 -102 -134 -94 -84 -55 -32 0 0 0 0 0 0 0 0 0 0 0 0 0 -24 0 0 -2 -3 -3 -11
-68 0 0 0 0 -2 -5 0 0 -35 0 -88 -68 -78 -108 -113 -138 -148 -138 -123 -71 -64 -60 -22 -8 0 0 0 0 0 0 0 0 0 0 0 0 -23 0 0 -6 -10 -9 -7
-81 0 0 0 -31 -2 -66 -102 0 -31 0 0 -48 -84 -70 -73 -110 -99 -110 -119 -98 -88 -48 -57 0 0 0 0 0 0 0 0 0 0 0 0 -12 -15 -18 -2 -6 -6 -10 -9
-41 0 0 0 0 -53 -33 -15 -13 -2 0 0 -8 -75 -64 -56 -69 -94 -113 -115 -103 -94 -88 -87 0 0 0 -2 0 0 0 0 0 0 0 -4 -11 0 -7 -9 -2 -10 -14 -11
-70 0 0 -64 0 0 -4 -24 -22 -4 -5 -26 -42 -14 -95 -60 -115 -96 -82 -68 -62 -64 -69 -77 -30 0 0 0 0 0 0 0 0 0 0 -7 -10 -2 -14 -18 -18 -11 -13 -18
-59 -90 -6 -29 -15 -12 -39 -159 -62 -26 -14 -143 -104 -158 -82 -72 -84 -74 -70 -74 -51 -73 -90 -74 0 0 0 0 0 0 0 0 0 -3 0 0 0 -10 -13 -11 -23 -30 -17 -14
-44 -38 -53 -61 -16 -9 -22 -118 -54 -59 -167 -86 0 -107 -26 -68 -22 -150 -88 -81 -76 -89 0 0 0 0 0 0 0 0 0 0 -2 0 0 0 -7 -18 -15 -26 -23 -24 -28 -9
-18 -91 -35 -34 -22 -10 -4 -175 -162 -141 -63 -72 -76 -18 0 -11 -27 -166 -117 -77 -85 -85 -68 -26 0 0 0 0 0 0 0 0 -1 0 0 0 0 0 -27 -18 -19 -19 -2 0
-126 -22 -10 -10 -16 -74 -102 -104 -75 -76 -77 -69 -67 -75 -68 -63 -160 -134 -113 -113 -112 -105 0 0 0 0 0 0 0 0 0 0 0 0 0 0 0 0 -10 -29 -28 0 0 0
-21 -24 -19 -86 -156 -75 -49 -93 -104 -94 -139 -124 -106 -96 -79 -88 -191 -102 -97 -91 0 0 0 0 0 0 0 0 0 0 0 0 0 0 0 0 0 0 0 0 0 0 -5 -14
-21 -1 0 -59 -244 -113 -186 -72 -97 -176 -168 -159 -151 -149 -141 0 0 0 0 0 0 0 0 0 0 0 0 0 0 0 0 0 0 0 0 0 0 0 0 0 0 -18 -25 -11
Wind_Speed
nan nan nan nan nan nan nan nan nan nan nan nan nan nan nan 14 15 17 24 nan 30 nan nan nan nan nan nan nan nan nan nan nan nan nan nan nan nan nan nan nan nan nan nan nan
nan nan nan nan nan nan nan nan nan nan nan nan nan nan nan nan 29 nan nan 35 nan nan nan nan nan nan nan nan nan 32 33 nan nan nan nan nan nan nan nan nan nan nan nan nan
nan nan nan nan nan nan nan nan nan nan nan nan nan nan nan nan 35 38 36 nan nan nan 42 42 37 33 33 35 nan 33 36 nan nan nan nan nan nan nan nan nan nan nan nan nan
nan nan nan nan nan nan nan nan nan nan nan nan nan nan nan nan 33 37 41 nan nan nan 36 38 35 36 35 nan 36 36 37 nan nan nan nan nan nan nan nan nan nan nan nan nan
nan nan nan nan nan nan nan nan nan nan nan nan nan nan 21 33 31 35 26 nan nan nan 31 41 nan 34 35 nan 36 36 nan nan nan nan nan nan nan nan nan nan nan nan nan nan
nan nan nan nan nan nan nan nan nan nan nan nan nan nan 25 24 29 36 50 54 33 27 23 32 nan nan 31 31 35 nan nan nan nan nan nan nan nan nan nan nan nan nan nan nan
nan nan nan nan nan nan nan nan nan nan nan nan nan nan nan 26 36 41 58 nan nan 19 nan nan 29 28 30 32 33 nan nan nan nan nan nan nan nan nan nan nan nan nan nan nan
nan nan nan nan nan nan nan nan nan nan nan nan nan nan nan nan 29 39 41 nan nan nan nan 31 29 28 34 34 nan nan nan nan nan nan nan nan nan nan nan nan nan nan nan nan
nan nan nan nan nan nan nan nan nan nan nan nan nan 21 19 nan 15 nan nan nan nan nan nan nan nan 28 34 36 nan nan nan nan nan nan nan nan nan nan nan nan nan nan nan nan
nan nan nan nan nan nan nan nan nan nan nan nan nan 26 nan nan nan 24 35 48 46 nan nan nan nan 31 nan nan nan nan nan nan nan nan nan nan nan nan nan nan nan nan nan nan
nan nan nan nan nan nan nan nan nan nan nan nan nan nan 22 27 nan 26 35 47 47 52 43 34 32 nan nan nan nan nan nan nan nan nan nan nan nan nan nan nan nan nan nan nan
nan nan nan nan nan nan nan nan nan nan nan nan nan nan 27 32 40 35 39 39 50 48 41 35 nan nan nan nan nan nan nan nan nan nan nan nan nan nan nan nan nan nan nan nan
nan nan nan nan nan nan nan nan nan nan nan nan nan nan nan 32 41 40 43 46 46 42 40 35 nan nan nan nan nan nan nan nan nan nan nan nan nan nan nan nan nan nan nan nan
nan nan nan nan nan nan nan nan nan nan nan nan nan nan 34 36 40 38 39 51 47 45 41 nan nan nan nan nan nan nan nan nan nan nan nan nan nan nan nan nan nan nan nan nan
nan nan nan nan nan nan nan nan nan nan nan nan nan nan nan 42 45 44 49 57 54 48 46 nan nan nan nan nan nan nan nan nan nan nan nan nan nan nan nan nan nan nan nan nan
nan nan nan nan nan nan nan nan nan nan nan nan nan nan nan 43 41 47 54 55 58 nan nan nan nan nan nan nan nan nan nan nan nan nan nan nan nan nan nan nan nan nan nan nan
nan nan nan nan nan nan nan nan nan nan nan nan nan nan nan 45 43 41 49 56 57 nan nan nan nan nan nan nan nan nan nan nan nan nan nan nan nan nan nan nan nan nan nan nan
nan nan nan nan nan nan nan nan nan nan nan nan nan 33 33 39 36 43 51 56 nan nan nan nan nan nan nan nan nan nan nan nan nan nan nan nan nan nan nan nan nan nan nan nan
nan nan nan nan nan nan nan nan nan nan nan nan nan 35 32 32 36 32 44 51 46 nan nan nan nan nan nan nan nan nan nan nan nan nan nan nan nan nan nan nan nan nan nan nan
nan nan nan nan nan nan nan nan nan nan nan nan nan nan nan 42 45 32 32 29 32 38 nan nan nan nan nan nan nan nan nan nan nan nan nan nan nan nan nan nan nan nan nan nan
nan nan nan nan nan nan nan nan nan nan nan nan nan nan nan 35 nan 29 35 28 35 38 nan nan nan nan nan nan nan nan nan nan nan nan nan nan nan nan nan nan nan nan nan nan
nan 32 nan nan nan nan nan nan nan nan 22 nan nan nan nan nan nan nan 30 33 40 nan nan nan nan nan nan nan nan nan nan nan nan nan nan nan nan nan nan nan nan nan nan nan
41 34 32 24 nan nan nan nan 28 28 nan nan nan nan nan nan nan nan 35 41 nan nan nan nan nan nan nan nan nan nan nan nan nan nan nan nan nan nan nan nan nan nan nan nan
nan nan nan nan nan 23 25 26 28 nan nan nan nan nan nan nan nan nan nan nan nan nan nan nan nan nan nan nan nan nan nan nan nan nan nan nan nan nan nan nan nan nan nan nan
nan nan nan nan 39 26 25 24 23 nan nan nan nan nan nan nan nan nan nan nan nan nan nan nan nan nan nan nan nan nan nan nan nan nan nan nan nan nan nan nan nan nan nan nan
nan nan nan nan nan nan 17 15 nan nan nan nan nan nan nan nan nan nan nan nan nan nan nan nan nan nan nan nan nan nan nan nan nan nan nan nan nan nan nan nan nan nan nan nan
Wind_Direction
nan nan nan nan nan nan nan nan nan nan nan nan nan nan nan 345 351 327 325 nan 348 nan nan nan nan nan nan nan nan nan nan nan nan nan nan nan nan nan nan nan nan nan nan nan
nan nan nan nan nan nan nan nan nan nan nan nan nan nan nan nan 335 nan nan 333 nan nan nan nan nan nan nan nan nan 332 329 nan nan nan nan nan nan nan nan nan nan nan nan nan
nan nan nan nan nan nan nan nan nan nan nan nan nan nan nan nan 323 333 327 nan nan nan 344 342 331 325 325 331 nan 332 328 nan nan nan nan nan nan nan nan nan nan nan nan nan
nan nan nan nan nan nan nan nan nan nan nan nan nan nan nan nan 323 323 313 nan nan nan 328 340 331 325 331 nan 328 333 327 nan nan nan nan nan nan nan nan nan nan nan nan nan
nan nan nan nan nan nan nan nan nan nan nan nan nan nan 281 291 292 290 260 nan nan nan 316 332 nan 332 325 nan 329 330 nan nan nan nan nan nan nan nan nan nan nan nan nan nan
nan nan nan nan nan nan nan nan nan nan nan nan nan nan 293 291 292 295 293 313 288 272 305 322 nan nan 322 330 329 nan nan nan nan nan nan nan nan nan nan nan nan nan nan nan
nan nan nan nan nan nan nan nan nan nan nan nan nan nan nan 309 330 341 333 nan nan 269 nan nan 328 334 329 332 333 nan nan nan nan nan nan nan nan nan nan nan nan nan nan nan
nan nan nan nan nan nan nan nan nan nan nan nan nan nan nan nan 332 342 333 nan nan nan nan 329 339 340 332 337 nan nan nan nan nan nan nan nan nan nan nan nan nan nan nan nan
nan nan nan nan nan nan nan nan nan nan nan nan nan 266 273 nan 346 nan nan nan nan nan nan nan nan 342 332 334 nan nan nan nan nan nan nan nan nan nan nan nan nan nan nan nan
nan nan nan nan nan nan nan nan nan nan nan nan nan 276 nan nan nan 326 320 342 344 nan nan nan nan 337 nan nan nan nan nan nan nan nan nan nan nan nan nan nan nan nan nan nan
nan nan nan nan nan nan nan nan nan nan nan nan nan nan 304 314 nan 322 314 321 329 335 330 327 332 nan nan nan nan nan nan nan nan nan nan nan nan nan nan nan nan nan nan nan
nan nan nan nan nan nan nan nan nan nan nan nan nan nan 292 315 320 327 336 333 329 329 330 331 nan nan nan nan nan nan nan nan nan nan nan nan nan nan nan nan nan nan nan nan
nan nan nan nan nan nan nan nan nan nan nan nan nan nan nan 305 304 320 330 340 333 331 327 329 nan nan nan nan nan nan nan nan nan nan nan nan nan nan nan nan nan nan nan nan
nan nan nan nan nan nan nan nan nan nan nan nan nan nan 287 306 315 320 329 334 329 328 330 nan nan nan nan nan nan nan nan nan nan nan nan nan nan nan nan nan nan nan nan nan
nan nan nan nan nan nan nan nan nan nan nan nan nan nan nan 307 311 326 327 329 331 330 332 nan nan nan nan nan nan nan nan nan nan nan nan nan nan nan nan nan nan nan nan nan
nan nan nan nan nan nan nan nan nan nan nan nan nan nan nan 288 308 313 322 327 336 nan nan nan nan nan nan nan nan nan nan nan nan nan nan nan nan nan nan nan nan nan nan nan
nan nan nan nan nan nan nan nan nan nan nan nan nan nan nan 286 306 317 328 332 331 nan nan nan nan nan nan nan nan nan nan nan nan nan nan nan nan nan nan nan nan nan nan nan
nan nan nan nan nan nan nan nan nan nan nan nan nan 273 286 289 298 304 316 322 nan nan nan nan nan nan nan nan nan nan nan nan nan nan nan nan nan nan nan nan nan nan nan nan
nan nan nan nan nan nan nan nan nan nan nan nan nan 276 256 273 289 297 313 321 322 nan nan nan nan nan nan nan nan nan nan nan nan nan nan nan nan nan nan nan nan nan nan nan
nan nan nan nan nan nan nan nan nan nan nan nan nan nan nan 273 302 304 304 302 302 305 nan nan nan nan nan nan nan nan nan nan nan nan nan nan nan nan nan nan nan nan nan nan
nan nan nan nan nan nan nan nan nan nan nan nan nan nan nan 284 nan 283 286 288 297 303 nan nan nan nan nan nan nan nan nan nan nan nan nan nan nan nan nan nan nan nan nan nan
nan 254 nan nan nan nan nan nan nan nan 273 nan nan nan nan nan nan nan 292 297 298 nan nan nan nan nan nan nan nan nan nan nan nan nan nan nan nan nan nan nan nan nan nan nan
225 230 243 245 nan nan nan nan 265 276 nan nan nan nan nan nan nan nan 297 296 nan nan nan nan nan nan nan nan nan nan nan nan nan nan nan nan nan nan nan nan nan nan nan nan
nan nan nan nan nan 224 216 227 243 nan nan nan nan nan nan nan nan nan nan nan nan nan nan nan nan nan nan nan nan nan nan nan nan nan nan nan nan nan nan nan nan nan nan nan
nan nan nan nan 227 216 211 237 267 nan nan nan nan nan nan nan nan nan nan nan nan nan nan nan nan nan nan nan nan nan nan nan nan nan nan nan nan nan nan nan nan nan nan nan
nan nan nan nan nan nan 204 226 nan nan nan nan nan nan nan nan nan nan nan nan nan nan nan nan nan nan nan nan nan nan nan nan nan nan nan nan nan nan nan nan nan nan nan nan